User: anonymous   Login
Location: Caltech
(34.1382°N, 118.1253°W)
Time: 04:57:38
(UTC-07:00)
Language:

Oscar 16 - Orbit

View from above orbital plane
View from above orbital plane
View from above satellite
View from above satellite

Ground track
Ground track

The orbit data is extracted from the following two-line orbital elements,

1 20439U 90005D   15085.09361294  .00000254  00000-0  10961-3 0  9996
2 20439 098.5352 022.5354 0011831 050.1986 016.9649 14.32509461314846
Epoch (UTC): 26 March 2015 02:14:48
Eccentricity: 0.0011831
inclination: 98.5352°
perigee height: 775 km
apogee height: 792 km
right ascension of ascending node: 22.5354°
argument of perigee: 50.1986°
revolutions per day: 14.32509461
mean anomaly at epoch: 16.9649°
orbit number at epoch: 31484

The dashed part of the orbit path shows where the satellite is in the earth's shadow,  

DLR